Regional Weather Roundup
Issued by NWS State College, PA

Home | Current Version | Previous Version | Graphics & Text | Print | Product List | Glossary Off
Versions: 1 2 3 4 5 6 7 8 9 10 11 12 13 14 15 16 17 18 19 20 21 22 23 24 25 26 27 28 29 30 31 32 33 34 35 36 37 38 39 40 41 42 43 44 45 46 47 48 49 50

000
ASUS41 KCTP 100510
RWRCTP

REGIONAL WEATHER ROUNDUP
NATIONAL WEATHER SERVICE STATE COLLEGE PA
100 AM EDT THU JUL 10 2014

Note: "fair" indicates few or no clouds below 12,000 feet with no
significant weather and/or obstructions to visibility.

* = STATION THAT DOES NOT REPORT PRECIPITATION /E.G. RAIN...SNOW...ETC/
    THUNDER OR FOG.

PAZ002>004-007>009-013>016-020>023-029>032-100600-
WESTERN PENNSYLVANIA

CITY           SKY/WX    TMP DP  RH WIND       PRES   REMARKS
ERIE           CLEAR     60  55  83 CALM      30.04S
MEADVILLE      CLEAR     59  54  83 E3        30.06S
FRANKLIN*      PTCLDY    61  55  82 NE5       30.08R
NEW CASTLE     NOT AVBL
BEAVER COUNTY  NOT AVBL
BUTLER*        MOCLDY    64  57  77 E3        30.05F
PITTSBURGH INT LGT RAIN  66  62  87 S5        30.05R FOG
PITTSBURGH     PTCLDY    70  58  65 NE5       30.03R
INDIANA*       CLOUDY    64  61  88 E3        30.08S
LATROBE        CLEAR     64  64 100 CALM      30.04S
WASHINGTON CO* PTCLDY    59  55  88 CALM      30.04S
$$

PAZ004>006-010>012-017>019-024>028-033>037-041-042-045-046-049>053-100600-
CENTRAL PENNSYLVANIA

CITY           SKY/WX    TMP DP  RH WIND       PRES   REMARKS
BRADFORD       NOT AVBL
DUBOIS         CLOUDY    64  61  90 CALM      30.05F
CLEARFIELD     MOCLDY    61  61 100 N5        30.06S
JOHNSTOWN      CLEAR     62  56  80 CALM      30.06S
ALTOONA        NOT AVBL
STATE COLLEGE  MOCLDY    65  60  86 CALM      30.03S
WILLIAMSPORT   MOCLDY    65  62  90 N3        30.00S
SELINSGROVE    CLEAR     65  63  93 NW3       30.01R
FT INDIANTOWN  PTCLDY    66  66 100 NE3       29.99S
CAPITAL CITY   PTCLDY    75  61  61 CALM      29.98R
HARRISBURG     PTCLDY    73  63  70 CALM      29.97R
YORK           MOCLDY    69  68  96 CALM      29.98R
$$

PAZ038>040-043-044-047-048-054-055-060>062-067>071-100600-
EASTERN PENNSYLVANIA

CITY           SKY/WX    TMP DP  RH WIND       PRES   REMARKS
SCRANTON       CLEAR     64  60  87 E3        30.02R
MOUNT POCONO   PTCLDY    62  59  90 NW3       30.04S
ALLENTOWN      CLOUDY    68  63  84 CALM      30.00R
QUAKERTOWN*    MOCLDY    72  64  78 NE5       30.01R
READING        PTCLDY    72  66  81 N7        29.98R
LANCASTER      PTCLDY    72  65  78 S3        29.98R
COATESVILLE    MOCLDY    72  72 100 CALM      30.00R
POTTSTOWN      CLOUDY    74  66  76 NE5       30.00R
BLUE BELL      CLOUDY    77  70  78 CALM      29.98R
DOYLESTOWN     MOCLDY    72  67  84 N5        29.98R
WILLOW GROVE   NOT AVBL
NORTH PHILA    CLOUDY    80  69  69 W9        29.98R
PHILADELPHIA   MOCLDY    78  69  73 SW10      29.97R
$$


USA.gov is the U.S. government's official web portal to all federal, state and local government web resources and services.